[[{"header":{"parameterUnit":"m.s-1","parameterCategory":1,"la1":30.2992,"la2":30.254,"lo1":-89.0895,"lo2":-89.0443,"dy":0.0025,"dx":0.0025,"nx":19,"ny":19,"refTime":"2026-04-05T03:00:00:Z","depth":0,"parameterNumber":2,"parameterNumberName":"U-component_of_WINDS"},"data":[0,0,0,-3.1135,-3.1138,-3.127,-3.127,-3.1458,-3.146,0,0,0,0,0,0,0,0,0,0,0,-3.1108,-3.111,-3.1135,-3.1138,-3.127,-3.127,-3.1458,-3.146,0,0,0,0,0,0,0,0,0,0,0,-3.1108,-3.111,-3.1112,-3.1139,-3.127,-3.127,-3.1457,-3.1351,0,0,0,0,0,0,0,0,0,0,-3.122,-3.1208,-3.1109,-3.1112,-3.114,-3.1269,-3.127,-3.1345,-3.1357,-3.1407,0,-3.1455,0,-3.1461,-3.1474,-3.1474,0,0,0,-3.1129,-3.1198,-3.1222,-3.1112,-3.1141,-3.1269,-3.1208,-3.1352,-3.1366,-3.1423,-3.1457,-3.1464,-3.1464,-3.1475,-3.1476,-3.1795,-3.1797,0,0,-3.1122,-3.1139,-3.1213,-3.1231,-3.1213,-3.1204,-3.1212,-3.136,-3.1398,-3.1458,-3.1468,-3.1467,-3.1476,-3.1478,-3.1793,-3.1795,0,0,0,-3.1107,-3.1134,-3.1154,-3.1224,-3.1246,-3.1208,-3.1217,-3.1392,-3.1397,-3.147,-3.1469,-3.1478,-3.148,-3.1791,-3.1794,-3.1908,0,0,0,-3.1102,-3.1126,-3.1152,-3.1164,-3.1244,-3.1321,-3.1246,-3.1386,-3.1403,-3.1468,-3.1478,-3.1482,-3.1789,-3.1792,-3.19,-3.196,0,0,0,-3.1096,-3.1125,-3.1148,-3.1164,-3.1221,-3.1318,-3.1331,-3.1389,-3.1403,-3.1475,-3.1483,-3.1787,-3.1792,-3.1893,-3.1949,-3.2051,0,0,0,-3.1094,-3.1247,-3.115,-3.1321,-3.1221,-3.1387,-3.133,-3.1453,-3.1528,-3.1479,-3.1789,-3.1793,-3.1891,-3.1942,-3.2043,-3.2142,-3.2184,0,0,-3.1298,-3.1273,-3.1372,-3.1289,-3.1478,-3.1366,-3.1571,-3.1623,-3.1613,-3.1734,-3.1742,-3.1903,-3.1948,-3.2049,-3.2407,-3.2441,0,0,0,-3.1443,-3.1515,-3.156,-3.1633,-3.1676,-3.1718,-3.1736,-3.1755,-3.1858,-3.1679,-3.1965,-3.1991,-3.205,-3.2096,-3.2125,-3.2175,-3.1815,-3.1814,-3.1814,-3.1759,-3.1738,-3.1901,-3.1896,-3.1966,-3.1983,-3.2039,-3.2067,-3.2024,-3.2092,-3.213,-3.235,-3.2404,-3.2426,-3.2478,-3.2177,-3.2177,-3.2178,-3.2178,-3.2058,-3.2158,-3.2096,-3.2233,-3.221,-3.2324,-3.2345,-3.2311,-3.2414,-3.232,-3.237,-3.2272,-3.2463,-3.2508,-3.2187,-3.2185,-3.2184,-3.2183,-3.2183,-3.2266,-3.231,-3.2329,-3.2432,-3.2512,-3.25,-3.2602,-3.2575,-3.2551,-3.2601,-3.2639,-3.2637,-3.2634,-3.262,-3.2621,-3.2622,-3.2622,-3.2623,-3.2623,-3.2475,-3.2493,-3.2582,-3.264,-3.2683,-3.2736,-3.2752,-3.2793,-3.2832,-3.2805,-3.2805,-3.2758,-3.2484,-3.2418,-3.2635,-3.2633,-3.2632,-3.2631,-3.263,-3.2792,-3.2715,-3.2854,-3.2897,-3.2962,-3.3044,-3.3007,-3.3093,-3.3123,-3.3174,-3.3114,-3.2916,-3.2889,-3.2866,-3.2811,-3.3117,-3.3117,-3.3117,-3.3117,-3.2969,-3.2952,-3.3087,-3.3158,-3.3223,-3.3204,-3.3361,-3.3374,-3.3376,-3.3393,-3.3344,-3.3268,-3.3245,-3.3232,-3.3201,-3.3149,-3.3535,-3.3535,-3.3535,-3.3164,-3.3151,-3.3291,-3.3292,-3.334,-3.3382,-3.3529,-3.3611,-3.3597,-3.3552,-3.3406,-3.3389,-3.3265,-3.3225,-3.3181,-3.3134,-3.3039,0,0]},{"header":{"parameterUnit":"m.s-1","parameterCategory":1,"la1":30.2992,"la2":30.254,"lo1":-89.0895,"lo2":-89.0443,"dy":0.0025,"dx":0.0025,"nx":19,"ny":19,"refTime":"2026-04-05T03:00:00:Z","depth":0,"parameterNumber":3,"parameterNumberName":"V-component_of_WINDS"},"data":[0,0,0,-6.7578,-6.7582,-6.7749,-6.7749,-6.7976,-6.7979,0,0,0,0,0,0,0,0,0,0,0,-6.7542,-6.7544,-6.7578,-6.7583,-6.7749,-6.7749,-6.7976,-6.7979,0,0,0,0,0,0,0,0,0,0,0,-6.7541,-6.7543,-6.7546,-6.7583,-6.7749,-6.7749,-6.7975,-6.7844,0,0,0,0,0,0,0,0,0,0,-6.7679,-6.7659,-6.7543,-6.7546,-6.7584,-6.7749,-6.7749,-6.7837,-6.7852,-6.7908,0,-6.7966,0,-6.7976,-6.7995,-6.7996,0,0,0,-6.7572,-6.7647,-6.7681,-6.7546,-6.7586,-6.7748,-6.7671,-6.7845,-6.7862,-6.7928,-6.7969,-6.7977,-6.798,-6.7997,-6.7998,-6.8367,-6.8369,0,0,-6.7563,-6.7578,-6.7669,-6.7692,-6.7672,-6.7666,-6.7676,-6.7855,-6.7899,-6.7969,-6.7982,-6.7984,-6.7998,-6.8,-6.8365,-6.8368,0,0,0,-6.7544,-6.7572,-6.7601,-6.7684,-6.7713,-6.7671,-6.7683,-6.7891,-6.7899,-6.7984,-6.7986,-6.8,-6.8003,-6.8363,-6.8366,-6.8492,0,0,0,-6.7537,-6.7561,-6.7597,-6.7608,-6.771,-6.7805,-6.7715,-6.7887,-6.7906,-6.7985,-6.8,-6.8005,-6.836,-6.8364,-6.8483,-6.8549,0,0,0,-6.7526,-6.7559,-6.7588,-6.7608,-6.7681,-6.7802,-6.782,-6.7891,-6.7909,-6.7996,-6.8006,-6.8358,-6.8364,-6.8476,-6.8536,-6.8651,0,0,0,-6.7518,-6.7696,-6.759,-6.7789,-6.768,-6.7879,-6.7818,-6.7965,-6.8056,-6.8001,-6.836,-6.8366,-6.8473,-6.8528,-6.8643,-6.8751,-6.8798,0,0,-6.7751,-6.7725,-6.7841,-6.7751,-6.7974,-6.7853,-6.8092,-6.8159,-6.8151,-6.8294,-6.8303,-6.8486,-6.8535,-6.8649,-6.9053,-6.909,0,0,0,-6.792,-6.8003,-6.8059,-6.8147,-6.8204,-6.8258,-6.8286,-6.831,-6.8432,-6.8229,-6.8558,-6.8587,-6.8653,-6.8704,-6.8736,-6.8791,-6.839,-6.8389,-6.8389,-6.8271,-6.8254,-6.8444,-6.8448,-6.8533,-6.8561,-6.8628,-6.8665,-6.8621,-6.8698,-6.8741,-6.8989,-6.9049,-6.9073,-6.9131,-6.8796,-6.8797,-6.8797,-6.8798,-6.8611,-6.8727,-6.8665,-6.8828,-6.8808,-6.8942,-6.8975,-6.8939,-6.9059,-6.8955,-6.9012,-6.8901,-6.9114,-6.9164,-6.8807,-6.8805,-6.8804,-6.8803,-6.8803,-6.884,-6.8892,-6.8921,-6.9046,-6.9144,-6.9138,-6.9258,-6.9234,-6.9211,-6.9268,-6.931,-6.9308,-6.9303,-6.929,-6.9291,-6.9292,-6.9292,-6.9293,-6.9293,-6.9067,-6.9094,-6.92,-6.9276,-6.9328,-6.9395,-6.9423,-6.9473,-6.9522,-6.9495,-6.9495,-6.9443,-6.9139,-6.9063,-6.9307,-6.9304,-6.9303,-6.9301,-6.9301,-6.9419,-6.9336,-6.9499,-6.9553,-6.9638,-6.9736,-6.9703,-6.9807,-6.9845,-6.9904,-6.9839,-6.9618,-6.9589,-6.9563,-6.9501,-6.9843,-6.9843,-6.9843,-6.9843,-6.9613,-6.9596,-6.9758,-6.9844,-6.9926,-6.9913,-7.0095,-7.0117,-7.0127,-7.0148,-7.0095,-7.0009,-6.9984,-6.9969,-6.9935,-6.9876,-7.0306,-7.0307,-7.0307,-6.9829,-6.9818,-6.998,-6.9992,-7.0056,-7.011,-7.028,-7.0379,-7.0371,-7.0325,-7.0164,-7.0145,-7.0006,-6.9962,-6.9914,-6.9861,-6.9752,0,0]}]]